Theta_e
329 329 328 330 331 330 333 332 331 329 331 332 334 339 342 346 346 345 347 347 346 348 348 346 346 346 346 352 352 349 346 345
328 328 329 329 330 331 331 334 335 332 332 333 333 332 342 352 349 350 350 349 348 350 347 347 347 348 350 352 350 348 345 344
327 330 330 329 331 331 332 334 334 334 334 333 332 333 338 351 349 351 352 354 354 350 349 348 349 352 352 351 349 347 345 343
327 327 328 330 331 333 334 337 333 336 333 331 334 338 342 349 349 347 346 352 355 351 350 349 351 351 351 348 345 346 345 343
330 328 328 327 329 331 334 339 335 335 333 336 337 342 345 349 350 345 345 352 356 354 353 351 351 350 346 345 345 345 345 343
328 331 329 329 328 330 333 335 334 334 333 334 335 339 347 350 350 348 346 350 354 353 353 351 349 348 343 346 344 344 344 342
331 330 328 327 329 330 332 334 335 333 334 334 339 343 342 348 353 350 349 346 352 352 352 350 350 348 346 346 345 346 346 343
332 331 331 330 328 330 331 332 333 332 334 342 344 344 344 347 353 352 350 349 351 350 346 348 350 349 348 348 347 347 346 345
331 332 333 333 331 330 330 331 333 334 336 344 346 348 346 346 349 350 349 348 353 352 346 348 351 350 350 350 349 348 347 346
330 334 335 330 335 334 334 335 337 339 343 346 348 348 346 346 348 351 350 347 350 350 349 350 349 349 349 349 349 349 349 348
333 331 329 331 338 336 336 334 341 345 344 344 346 347 348 344 348 350 350 349 348 348 346 346 344 344 345 344 345 346 347 346
333 333 331 330 346 345 346 338 345 346 346 344 346 340 345 338 340 342 339 338 337 337 338 337 338 341 341 340 339 336 333 336
330 333 330 339 343 344 345 343 351 348 348 348 350 349 339 335 334 333 334 333 334 335 335 333 334 337 336 333 330 328 329 330
328 329 333 341 343 345 352 352 349 348 347 349 343 334 334 333 331 333 335 334 335 335 332 328 330 330 329 325 322 322 323 327
327 328 344 342 348 347 346 349 349 345 344 341 339 336 332 332 332 336 336 333 331 327 324 324 324 325 322 319 320 320 321 320
339 337 341 343 342 343 343 344 342 340 340 340 342 339 335 332 334 329 327 329 327 326 323 322 321 321 318 319 319 317 316 315
338 342 341 341 341 342 343 341 339 338 337 338 338 338 336 334 333 330 328 326 326 324 322 320 319 318 316 315 316 314 314 313
337 341 343 344 342 341 341 343 339 338 338 337 338 337 337 335 331 330 328 325 324 323 321 320 319 318 316 316 316 317 315 315
336 335 339 340 340 340 341 340 339 339 338 337 336 335 334 332 329 325 325 324 323 323 322 321 321 318 318 319 317 315 316 314
Wind_Speed
5 4 14 8 10 14 11 8 8 8 4 11 6 9 6 1 5 7 9 8 8 7 10 12 13 12 13 13 13 10 10 9
6 6 5 8 4 8 9 12 9 5 5 4 1 3 5 5 6 9 8 9 9 9 10 12 13 13 13 12 11 9 8 8
6 10 10 7 9 9 7 4 8 6 7 6 1 4 3 7 10 11 11 10 10 11 13 14 14 14 16 13 11 9 8 7
11 7 4 5 8 9 9 12 8 8 10 5 2 3 0 9 12 12 10 10 11 13 14 13 12 13 13 14 12 11 9 8
9 8 7 11 12 11 9 6 10 9 4 3 2 4 3 10 14 11 12 12 12 12 13 13 14 13 13 14 12 11 9 8
9 8 2 14 14 13 14 11 11 10 8 6 3 4 7 9 16 14 12 13 13 12 14 15 16 12 13 12 10 10 9 8
9 6 7 10 7 12 15 18 6 7 3 4 6 7 6 9 14 14 13 14 15 14 13 16 16 15 13 11 10 9 8 6
10 5 6 9 11 10 14 12 9 11 9 8 4 4 4 8 16 16 14 15 16 15 15 15 14 12 12 11 9 9 8 7
12 5 7 10 12 11 14 13 12 13 4 5 4 5 3 6 12 14 15 14 14 15 14 14 14 11 11 10 9 8 8 9
10 5 13 4 2 5 9 8 8 8 2 4 4 5 5 1 10 10 12 15 13 13 14 11 10 11 10 8 9 10 10 10
9 11 13 6 4 6 8 13 8 7 2 1 2 6 4 4 3 7 9 12 13 14 14 11 10 8 9 8 4 5 7 6
7 14 18 13 9 2 3 11 9 3 4 4 4 8 4 7 6 9 11 12 14 14 14 12 10 9 9 9 7 5 3 4
12 12 9 7 4 3 10 1 4 5 5 4 5 6 6 8 7 9 11 13 13 12 12 10 10 11 8 7 7 3 2 2
13 14 15 6 6 7 5 2 6 5 7 5 5 7 7 7 6 8 11 12 9 9 9 6 5 9 14 8 5 6 4 3
7 8 6 2 3 4 3 3 6 5 5 4 7 5 5 5 5 5 8 10 8 8 9 7 5 5 10 11 6 7 7 7
2 7 3 2 2 1 2 2 3 2 1 3 3 6 5 6 4 9 8 7 7 7 8 7 6 6 8 11 9 9 11 10
6 4 2 3 3 3 3 3 3 3 3 3 2 5 8 6 5 6 5 5 7 8 8 7 7 7 7 10 10 12 13 12
1 7 5 7 5 3 2 3 4 4 5 3 6 6 7 6 5 5 7 9 10 11 11 10 9 8 8 9 10 13 14 12
5 9 5 4 3 4 2 2 4 4 4 5 4 6 6 6 6 9 9 10 11 11 11 11 10 11 10 11 11 12 15 15
Wind_Direction
196 217 222 183 230 248 268 247 273 268 220 261 238 260 249 159 109 148 158 157 172 164 162 158 165 164 146 139 127 119 107 114
128 176 196 258 174 203 228 262 261 195 256 289 356 256 150 126 148 136 153 164 173 159 160 150 145 138 127 121 125 126 126 116
195 205 175 185 217 239 298 305 292 247 216 118 319 329 342 143 153 151 150 157 156 158 155 145 140 143 138 134 139 147 135 139
239 118 276 269 270 225 239 201 237 294 293 140 244 321 147 155 153 155 148 145 155 149 148 143 141 149 146 145 155 155 153 150
210 189 198 229 217 230 243 290 272 278 271 123 246 252 148 162 149 156 151 146 147 146 155 150 153 169 154 155 157 156 157 154
277 1 164 198 227 215 222 243 240 233 292 294 240 273 151 180 156 159 159 157 153 155 158 159 161 172 164 146 143 160 164 167
257 267 254 273 218 205 217 236 266 300 220 299 34 15 339 175 154 161 157 169 169 163 161 165 186 168 155 143 156 162 167 171
253 207 235 239 240 232 207 238 263 272 270 52 39 41 33 167 171 174 172 172 172 167 173 174 173 170 154 156 161 174 170 185
248 178 231 240 244 237 238 241 251 256 256 27 4 25 42 187 188 188 176 177 177 172 170 174 164 166 167 169 175 191 195 202
257 190 234 258 27 290 269 252 249 267 350 5 11 80 58 284 187 184 177 167 174 171 155 151 151 153 152 170 190 204 213 217
245 231 248 191 214 237 237 249 211 247 243 22 127 174 112 25 179 164 166 159 155 141 142 143 139 133 131 130 163 201 227 236
214 248 248 249 111 85 303 245 171 257 300 295 216 264 69 118 113 96 104 125 135 133 132 129 117 125 125 116 114 87 12 283
228 238 255 111 120 170 220 227 21 354 4 333 304 17 117 132 133 138 140 137 137 135 130 125 130 129 126 118 101 75 28 328
233 237 234 139 140 238 22 50 21 18 25 38 70 96 109 117 128 139 137 134 131 117 103 99 122 135 118 90 79 75 71 86
232 229 95 128 19 50 1 339 3 6 19 97 108 112 122 119 144 141 113 89 84 104 95 85 77 99 107 110 100 97 95 91
248 164 153 120 118 39 15 9 5 357 357 102 99 119 147 157 166 91 100 101 101 105 97 87 81 88 109 113 122 119 106 101
229 120 235 148 51 42 76 79 89 120 132 128 132 142 126 127 139 126 131 142 144 132 126 122 119 119 118 121 124 114 107 107
25 31 326 61 30 38 38 76 117 130 133 152 151 156 163 133 134 148 137 131 122 131 136 135 131 123 114 116 124 118 110 108
341 336 332 4 45 34 24 100 134 151 137 139 142 151 153 154 140 130 144 143 141 139 135 136 132 118 116 118 118 117 116 120